Back to catalog

METEOR 2-8 DEB

AlivePO
NORAD 36337·DEBRIS·🇷🇺 Russia

Launched Mar 25, 1982 from Plesetsk Cosmodrome

Loading…

Next Passes (next 24 hours)

TLE

FreshSource: Space-Track

Epoch: Sep 14, 2026, 01:54 UTC

1 36337U 82025X   26257.07928949  .00000727  00000-0  33876-3 0  9995
2 36337  82.5246 180.1853 0016872 349.4867  10.5958 14.19272221637715

Track METEOR 2-8 DEB in real time with AllMySat

Download on the App Store